This is the latest recevied weather packets stored in our database for station/object LZ1HCO-25. If no packets are shown the sender has not sent any weather packets the latest 10 day(s).
| Time | Temp. | Humidity | Pressure | Rain* | Wind** | Luminosity | Snow |
|---|---|---|---|---|---|---|---|
| 1777911512 | 20° C | 50% | 969 hPa | - | - | 0 W/m² | - |
| 1777911201 | 20° C | 49% | 969 hPa | - | - | 0 W/m² | - |
| 1777910890 | 21.67° C | 46% | 969 hPa | - | - | 0 W/m² | - |
| 1777910578 | 23.33° C | 42% | 969 hPa | - | - | 0 W/m² | - |
| 1777910267 | 23.33° C | 43% | 969 hPa | - | - | 0 W/m² | - |
| 1777909956 | 22.78° C | 40% | 969 hPa | - | - | 0 W/m² | - |
| 1777909644 | 23.33° C | 41% | 969 hPa | - | - | 0 W/m² | - |
| 1777909333 | 22.22° C | 38% | 969 hPa | - | - | 0 W/m² | - |
| 1777909022 | 22.22° C | 38% | 969 hPa | - | - | 0 W/m² | - |
| 1777908710 | 22.22° C | 39% | 969 hPa | - | - | 0 W/m² | - |
| 1777908399 | 23.89° C | 39% | 969 hPa | - | - | 0 W/m² | - |
| 1777908088 | 22.22° C | 38% | 970 hPa | - | - | 0 W/m² | - |
| 1777907776 | 21.67° C | 39% | 970 hPa | - | - | 0 W/m² | - |
| 1777907465 | 23.33° C | 38% | 970 hPa | - | - | 0 W/m² | - |
| 1777907153 | 23.33° C | 38% | 970 hPa | - | - | 0 W/m² | - |
| 1777906842 | 22.78° C | 39% | 970 hPa | - | - | 0 W/m² | - |
| 1777906531 | 22.22° C | 38% | 970 hPa | - | - | 0 W/m² | - |
| 1777906219 | 22.22° C | 40% | 970 hPa | - | - | 0 W/m² | - |
| 1777905908 | 22.22° C | 38% | 970 hPa | - | - | 0 W/m² | - |
| 1777905597 | 22.78° C | 39% | 970 hPa | - | - | 0 W/m² | - |
| 1777905285 | 22.22° C | 39% | 970 hPa | - | - | 0 W/m² | - |
| 1777904974 | 22.22° C | 39% | 970 hPa | - | - | 0 W/m² | - |
| 1777904663 | 22.78° C | 40% | 970 hPa | - | - | 0 W/m² | - |
| 1777904351 | 22.22° C | 40% | 970 hPa | - | - | 0 W/m² | - |
| 1777904040 | 22.22° C | 38% | 970 hPa | - | - | 0 W/m² | - |
* Rain since midnight (hover to see other rain measurements)
** Current wind speed in m/s (hover to see current wind gust speed)